星链-34950 (STARLINK-34950)

导读 | 豆包AI

STARLINK-34950是美国于2025年8月14日发射的星链卫星,属于SpaceX公司星链(Starlink)星座项目。星链项目旨在构建全球卫星互联网星座,为全球多地提供高速低延迟宽带互联网服务,该卫星发射后将加入近地轨道星座组网,进一步扩展星链系统的全球覆盖范围与服务能力。

Basic Information
目录编号:
65193
目录名称:
STARLINK-34950
国际标识:
2025-175V
轨道中心:
EARTH
卫星名称:
星链-34950
卫星全名:
星链-34950 (STARLINK-34950)
卫星状态:
在轨 (已飞行258 天)
发射日期:
2025-08-14 UTC
国别 :
美国 (US)
星等 :
--
Orbit Information
数据来源 国际轨道数据 AOE轨道数据
星历时间 2026-04-29T11:11:24+0800
7小时前
查看轨道信息
2026-04-29T01:00:00+0800
18小时前
查看轨道信息
半长轴 6927.597km 6927.605km
偏心率 0.0001748 0.0002198
轨道倾角 97.562° 97.568°
近地点辐角 62.505° 92.628°
升交点赤经 352.390° 351.974°
平近点角 297.635° 127.603°
近地点 548.249km 547.945km
远地点 550.671km 550.991km
周期 95.639分钟 95.639分钟
每日圈数 15.056668 15.056641
Detailed Information
固有亮度:
5
最大亮度:
2.5
卫星平台:
Starlink V1.0
覆盖范围:
全球
运营商:
太空探索技术公司
运营商所在国:
美国
制造商(研发单位):
太空探索技术公司
制造商所在国:
美国
使用方式:
暂无
Satellite Introduction
Starlink 计划是 SpaceX 推出的全球卫星互联网项目,通过发射低轨道卫星,为全球尤其是偏远地区提供高速、低延迟的互联网服务。自 2019 年起,Starlink 已部署数千颗卫星,旨在缩小全球数字鸿沟,推动互联网普及。该项目还为军事、航空等行业提供通信支持,带来广泛经济效益。
2D Orbit Map
3D Orbit Map
Orbit Altitude Analysis Chart
Orbit Inclination Analysis Chart
Orbit Comprehensive Analysis Chart
View Comprehensive Chart